Terminal Aerodrome Forecast
Issued by NWS St Louis, MO

Home | Current Version | Previous Version | Text Only | Print | Product List | Glossary On
Versions: 1 2 3 4 5 6 7 8 9 10 11 12 13 14 15 16 17 18 19
000
FTUS43 KLSX 251100
TAFCOU
TAF
KCOU 251128Z 2512/2612 19006KT P6SM SCT050
     FM252300 14005KT P6SM FEW060=

USA.gov is the U.S. government's official web portal to all federal, state and local government web resources and services.